{"data":{"norad_id":51756,"intl_designator":"2022-016AU","name":"STARLINK-3513","alt_names":[],"object_type":"PAYLOAD","status":"ACTIVE","operator":null,"country":"US","launch_date":"2022-02-21","launch_site_code":"AFETR","launch_vehicle":null,"mission":null,"orbit_class":"UNKNOWN","rcs_meters":null,"size_class":null,"mass_kg":null,"dimensions":null,"purposes":["comms"],"wikipedia_slug":null,"has_3d_model":false,"image_url":null,"decayed_at":null,"tle_current":{"epoch":"2026-09-20T03:31:15.991104Z","epoch_age_seconds":82763,"freshness":"FRESH","line1":"1 51756U 22016AU  26263.14671286  .00004142  00000+0  13727-3 0  9992","line2":"2 51756  53.1589 141.5037 0001490  86.1500 273.9673 15.33537017253262","mean_motion":15.33537017,"eccentricity":0.000149,"inclination_deg":53.1589,"raan_deg":141.5037,"arg_perigee_deg":86.15,"mean_anomaly_deg":273.9673,"bstar":0.00013727,"rev_number":25326,"period_min":93.900569991914,"perigee_km":464.24974276016,"apogee_km":466.28907787043,"semimajor_km":6843.4064103153,"source":"CELESTRAK","updated_at":"2026-09-20T09:00:39.934866Z"}}}